Terug naar catalogus

FENGYUN 1C DEB

ActiefSSO
NORAD 30465·DEBRIS·🇨🇳 China

Gelanceerd May 10, 1999 vanaf Taiyuan Satellite Launch Center

Loading…

Volgende Passages (komende 24 uur)

TLE

VersSource: Space-Track

Epoch: Sep 14, 2026, 05:47 UTC

1 30465U 99025AGC 26257.24149449  .00002831  00000-0  98435-3 0  9998
2 30465  98.8268 356.6250 0015568 294.2847  94.7566 14.36215825 13085

Volg FENGYUN 1C DEB in realtime met AllMySat

Download on the App Store